Weather History for Liberal, KS

Change the Weather History Date:

Thursday, February 14, 2013

  Actual Average Record
Temperature  
Mean Temperature 36 °F -  
Max Temperature 46 °F 53 °F 83 °F (1954)
Min Temperature 26 °F 25 °F 3 °F (1978)
Degree Days  
Heating Degree Days 29    
Moisture  
Dew Point 23 °F    
Average Humidity 61    
Maximum Humidity 74    
Minimum Humidity 46    
Precipitation  
Precipitation 0.00 in - - ()
Sea Level Pressure  
Sea Level Pressure 30.13 in    
Wind  
Wind Speed 11 mph (North)    
Max Wind Speed 28 mph    
Max Gust Speed 36 mph    
Visibility 10 miles    
Events      
Averages and records for this station are not official NWS values.
T = Trace of Precipitation, MM = Missing Value Source: NWS Daily Summary

Daily Weather History Graph

Daily Weather History Graph

Search for Another Location

Airport:

Trip Planner

Search our weather history database for the weather conditions in past years. The results will help you decide how hot, cold, wet, or windy it might be!

Date:

Astronomy

Feb. 14, 2013 Rise Set
Actual Time 7:33 AM CST 6:23 PM CST
Civil Twilight 7:06 AM CST 6:49 PM CST
Nautical Twilight 6:36 AM CST 7:20 PM CST
Astronomical Twilight 6:06 AM CST 7:50 PM CST
Moon 9:44 AM CST (2/14) 11:19 PM CST (2/14)
Length of Visible Light 11h 43m
Length of Day
10h 49m
Waxing Crescent, 22% of the Moon is Illuminated
Feb 14
Waxing Crescent
Feb 17
First Quarter
Feb 25
Full
Mar 4
Last Quarter
Mar 11
New

Hourly Weather History & Observations

Time (CST) Temp. Windchill Dew Point Humidity Pressure Visibility Wind Dir Wind Speed Gust Speed Precip Events Conditions
12:15 AM 28.4 °F 19.7 °F 21.2 °F 74% 29.99 in 10.0 mi WSW 9.2 mph - N/A   Clear
12:35 AM 30.2 °F 21.3 °F 21.2 °F 69% 29.99 in 10.0 mi West 10.4 mph - N/A   Clear
12:55 AM 30.2 °F 21.3 °F 21.2 °F 69% 30.00 in 10.0 mi West 10.4 mph - N/A   Clear
1:15 AM 30.2 °F 21.3 °F 21.2 °F 69% 30.00 in 10.0 mi West 10.4 mph - N/A   Clear
1:35 AM 28.4 °F 19.7 °F 19.4 °F 69% 30.01 in 10.0 mi WNW 9.2 mph - N/A   Clear
1:55 AM 26.6 °F 16.2 °F 17.6 °F 69% 30.02 in 10.0 mi NW 11.5 mph - N/A   Clear
2:15 AM 26.6 °F 17.5 °F 17.6 °F 69% 30.02 in 10.0 mi NW 9.2 mph - N/A   Clear
2:35 AM 26.6 °F 17.5 °F 17.6 °F 69% 30.02 in 10.0 mi NW 9.2 mph - N/A   Clear
2:55 AM 30.2 °F 19.8 °F 19.4 °F 64% 30.02 in 10.0 mi NNW 13.8 mph - N/A   Clear
3:15 AM 30.2 °F 20.2 °F 19.4 °F 64% 30.02 in 10.0 mi NNW 12.7 mph - N/A   Clear
3:35 AM 30.2 °F 21.9 °F 17.6 °F 60% 30.02 in 10.0 mi NNW 9.2 mph - N/A   Clear
3:55 AM 28.4 °F 19.7 °F 15.8 °F 59% 30.02 in 10.0 mi NNW 9.2 mph - N/A   Clear
4:15 AM 28.4 °F 19.7 °F 15.8 °F 59% 30.02 in 10.0 mi NNW 9.2 mph - N/A   Clear
4:35 AM 26.6 °F 21.2 °F 15.8 °F 64% 30.02 in 10.0 mi NNW 4.6 mph - N/A   Clear
4:55 AM 26.6 °F 16.8 °F 15.8 °F 64% 30.02 in 10.0 mi NNW 10.4 mph - N/A   Clear
5:15 AM 28.4 °F 19.1 °F 17.6 °F 64% 30.03 in 10.0 mi NNW 10.4 mph - N/A   Clear
5:35 AM 26.6 °F 18.2 °F 15.8 °F 64% 30.04 in 10.0 mi NNW 8.1 mph - N/A   Clear
6:15 AM 26.6 °F 18.2 °F 15.8 °F 64% 30.04 in 10.0 mi NNW 8.1 mph - N/A   Clear
6:35 AM 26.6 °F 21.2 °F 17.6 °F 69% 30.04 in 10.0 mi North 4.6 mph - N/A   Clear
6:55 AM 26.6 °F 22.6 °F 17.6 °F 69% 30.05 in 10.0 mi NW 3.5 mph - N/A   Clear
7:15 AM 28.4 °F 21.2 °F 19.4 °F 69% 30.06 in 10.0 mi NW 6.9 mph - N/A   Clear
7:35 AM 28.4 °F 19.7 °F 19.4 °F 69% 30.06 in 10.0 mi NNW 9.2 mph - N/A   Clear
7:55 AM 28.4 °F 20.4 °F 19.4 °F 69% 30.06 in 10.0 mi North 8.1 mph - N/A   Clear
8:15 AM 28.4 °F 19.7 °F 21.2 °F 74% 30.07 in 10.0 mi NNW 9.2 mph - N/A   Clear
8:35 AM 30.2 °F 21.9 °F 21.2 °F 69% 30.08 in 10.0 mi NNW 9.2 mph - N/A   Clear
8:55 AM 33.8 °F 26.4 °F 23.0 °F 65% 30.08 in 10.0 mi North 9.2 mph - N/A   Clear
9:15 AM 33.8 °F 27.0 °F 24.8 °F 70% 30.09 in 10.0 mi North 8.1 mph - N/A   Clear
9:35 AM 33.8 °F 27.0 °F 24.8 °F 70% 30.11 in 10.0 mi North 8.1 mph - N/A   Clear
9:55 AM 35.6 °F 30.7 °F 24.8 °F 65% 30.12 in 10.0 mi NNW 5.8 mph - N/A   Scattered Clouds
10:15 AM 37.4 °F 30.8 °F 26.6 °F 65% 30.11 in 10.0 mi North 9.2 mph - N/A   Scattered Clouds
10:35 AM 39.2 °F 35.0 °F 26.6 °F 61% 30.11 in 10.0 mi NNE 5.8 mph - N/A   Clear
10:55 AM 41.0 °F 37.1 °F 28.4 °F 61% 30.12 in 10.0 mi NNE 5.8 mph - N/A   Clear
11:15 AM 42.8 °F 37.5 °F 28.4 °F 57% 30.12 in 10.0 mi NNE 9.2 mph - N/A   Clear
11:35 AM 42.8 °F 38.6 °F 28.4 °F 57% 30.12 in 10.0 mi NE 6.9 mph - N/A   Mostly Cloudy
11:55 AM 42.8 °F 38.0 °F 28.4 °F 57% 30.13 in 10.0 mi NNE 8.1 mph - N/A   Mostly Cloudy
12:15 PM 44.6 °F 40.2 °F 28.4 °F 53% 30.13 in 10.0 mi NNE 8.1 mph - N/A   Overcast
12:35 PM 44.6 °F 39.2 °F 28.4 °F 53% 30.12 in 10.0 mi NE 10.4 mph - N/A   Overcast
12:55 PM 44.6 °F 39.7 °F 28.4 °F 53% 30.12 in 10.0 mi NNE 9.2 mph - N/A   Overcast
1:15 PM 44.6 °F 38.1 °F 28.4 °F 53% 30.11 in 10.0 mi NNE 13.8 mph - N/A   Overcast
1:35 PM 44.6 °F 37.2 °F 28.4 °F 53% 30.09 in 10.0 mi NNE 17.3 mph - N/A   Overcast
1:55 PM 46.4 °F 41.1 °F 28.4 °F 50% 30.10 in 10.0 mi NE 11.5 mph - N/A   Overcast
2:15 PM 46.4 °F 40.1 °F 28.4 °F 50% 30.10 in 10.0 mi NNE 15.0 mph - N/A   Overcast
2:35 PM 46.4 °F 40.4 °F 28.4 °F 50% 30.10 in 10.0 mi North 13.8 mph - N/A   Overcast
2:55 PM 46.4 °F 40.4 °F 26.6 °F 46% 30.10 in 10.0 mi NE 13.8 mph - N/A   Overcast
3:15 PM 44.6 °F 38.4 °F 26.6 °F 49% 30.10 in 10.0 mi NE 12.7 mph 20.7 mph N/A   Overcast
3:35 PM 46.4 °F 41.9 °F 26.6 °F 46% 30.10 in 10.0 mi NE 9.2 mph - N/A   Overcast
3:55 PM 46.4 °F 39.5 °F 28.4 °F 50% 30.11 in 10.0 mi NNE 17.3 mph 20.7 mph N/A   Overcast
4:15 PM 46.4 °F 39.8 °F 26.6 °F 46% 30.12 in 10.0 mi NE 16.1 mph 21.9 mph N/A   Overcast
4:35 PM 46.4 °F 39.5 °F 26.6 °F 46% 30.13 in 10.0 mi NE 17.3 mph 20.7 mph N/A   Overcast
4:55 PM 46.4 °F 40.1 °F 26.6 °F 46% 30.14 in 10.0 mi NE 15.0 mph - N/A   Mostly Cloudy
5:15 PM 46.4 °F 39.5 °F 26.6 °F 46% 30.16 in 10.0 mi NNE 17.3 mph 24.2 mph N/A   Overcast
5:35 PM 44.6 °F 36.9 °F 26.6 °F 49% 30.16 in 10.0 mi NNE 18.4 mph - N/A   Mostly Cloudy
5:55 PM 44.6 °F 36.9 °F 26.6 °F 49% 30.18 in 10.0 mi NNE 18.4 mph - N/A   Overcast
6:15 PM 42.8 °F 33.5 °F 26.6 °F 53% 30.19 in 10.0 mi North 23.0 mph 27.6 mph N/A   Overcast
6:35 PM 41.0 °F 31.9 °F 26.6 °F 57% 30.21 in 10.0 mi North 19.6 mph 27.6 mph N/A   Overcast
6:55 PM 39.2 °F 27.8 °F 26.6 °F 61% 30.23 in 10.0 mi North 27.6 mph 32.2 mph N/A   Overcast
7:15 PM 37.4 °F 25.4 °F 26.6 °F 65% 30.24 in 10.0 mi NNE 27.6 mph 33.4 mph N/A   Overcast
7:35 PM 37.4 °F 25.9 °F 24.8 °F 60% 30.26 in 10.0 mi NNE 25.3 mph 32.2 mph N/A   Overcast
7:55 PM 35.6 °F 23.2 °F 24.8 °F 65% 30.27 in 10.0 mi NNE 26.5 mph 35.7 mph N/A   Overcast
8:15 PM 35.6 °F 24.0 °F 24.8 °F 65% 30.27 in 10.0 mi NNE 23.0 mph 28.8 mph N/A   Overcast
8:35 PM 35.6 °F 25.9 °F 24.8 °F 65% 30.28 in 10.0 mi NNE 16.1 mph - N/A   Overcast
8:55 PM 35.6 °F 25.9 °F 24.8 °F 65% 30.28 in 10.0 mi North 16.1 mph - N/A   Overcast
9:15 PM 35.6 °F 26.6 °F 24.8 °F 65% 30.28 in 10.0 mi North 13.8 mph - N/A   Overcast
9:35 PM 35.6 °F 28.0 °F 24.8 °F 65% 30.29 in 10.0 mi North 10.4 mph - N/A   Overcast
9:55 PM 35.6 °F 27.5 °F 24.8 °F 65% 30.29 in 10.0 mi North 11.5 mph - N/A   Overcast
10:15 PM 35.6 °F 27.5 °F 24.8 °F 65% 30.30 in 10.0 mi North 11.5 mph - N/A   Overcast
10:35 PM 35.6 °F 27.1 °F 24.8 °F 65% 30.31 in 10.0 mi North 12.7 mph - N/A   Overcast
10:55 PM 35.6 °F 27.1 °F 23.0 °F 60% 30.32 in 10.0 mi North 12.7 mph - N/A   Overcast
11:15 PM 35.6 °F 26.6 °F 23.0 °F 60% 30.32 in 10.0 mi North 13.8 mph - N/A   Overcast
11:35 PM 33.8 °F 25.3 °F 23.0 °F 65% 30.32 in 10.0 mi North 11.5 mph - N/A   Overcast
11:55 PM 33.8 °F 24.8 °F 21.2 °F 60% 30.32 in 10.0 mi North 12.7 mph - N/A   Mostly Cloudy